Location: La Pernelle
(49.6188°N, 1.2999°W)
Time: 08:09:26
(UTC+00:00)

Cosmos 1110 Rocket - Pass Details

Date: 12 June 2021
Orbit: 752 x 782 km, 74.0° (Epoch: 01 August)

Event Time Altitude Azimuth Distance (km) Brightness Sun altitude
Exits shadow 23:05:24 13° 214° (SW) 2,080 5.9 -16.0°
Maximum altitude 23:10:01 66° 296° (WNW) 825 4.3 -16.1°
Drops below altitude 10° 23:15:12 10° 19° (NNE) 2,301 7.4 -16.3°
Sets 23:17:37 0° 23° (NNE) 3,235 8.2 -16.4°
